STARLINK-11670

Satellite information

Favourite Embed

Satellite Type and Status

PAYLOADIN ORBIT

Key statistics

Satellite STARLINK-11670 at a glance.

Uptime

193

Days in orbit

Revolutions

≈ 15.7

Per day

Orbit

LEO

Low Earth Orbit

Inclination

43.0

Latest

Satellite identification and parameters

Extended collection of information and parameters for STARLINK-11670.

Object identification

Identified? True

Debris? False

Object name: STARLINK-11670

International designator: 2025-119E

Object number (NORAD): 64237

Object ID (CCSDS): 64237

Country: UNITED STATES OF AMERICA (US)

Current information (Y/N): Y

RCS size: LARGE

Orbital parameters

Period: 91.665 minutes

Inclination: 43.0039 deg

SMA: 6734.334 km

Apoapsis: 358.98 km

Periapsis: 353.419 km

RAAN: 17.0673 deg

Eccentricy: 0.00041292

Argument of periapsis: 261.5976 deg

Mean anomaly: 98.4423 deg

Mean motion: 15.70944185 rev/day

Mean motion (dot): 0.00276055 rev/day2

B* drag term: 0.0020747157 1/REarth

Two-line elements (TLE)

Creation date: Dec. 12, 2025, 10:14 a.m.

Reference frame: TEME

Reference center: EARTH

Epoch: Dec. 12, 2025, 3:34 a.m. UTC

TLE line 0: 0 STARLINK-11670

TLE line 1: 1 64237U 25119E 25346.14919260 .00276055 00000-0 20747-2 0 9999

TLE line 2: 2 64237 43.0039 17.0673 0004129 261.5976 98.4423 15.70944185 31478

Live tracking on map

Real-time ground track for satellite STARLINK-11670.

In-orbit conjunctions

There are no conjunctions computed for STARLINK-11670, at the moment. Check back to stay up to date, as we update our databases every day.

Go to all conjunctions

Associated space launch

A batch of 23 satellites for the Starlink mega-constellation - SpaceX's project for space-based Internet communication system.

STARLINK-11670 was lifted into orbit during the mission ‘Falcon 9 Block 5 | Starlink Group 12-19’, on board a Falcon 9 space rocket.

The launch took place on June 3, 2025, 4:43 a.m. from Space Launch Complex 40.

For more information about the launch, click the button.

Launch to space Falcon 9 Block 5 | Starlink Group 12-19
Falcon 9 Block 5 | Starlink Group 12-19

Agency: SpaceX

Status: Launch Successful

Launch date: June 3, 2025, 4:43 a.m. UTC

Rocket: Falcon 9

Launch pad: Space Launch Complex 40

Location: Cape Canaveral SFS, FL, USA

...

Latest news about this satellite

News about space launch
Launch Roundup: Falcon 9 to launch crewed mission, Rocket Lab to launch 65th Electron

SpaceX continues to dominate the launch manifest with five missions this week, including a crewed… The post Launch Roundup: Falcon 9 to launch crewed mission, Rocket Lab to launch 65th Electron appeared first on NASASpaceFlight.com.

News about space launch
Live coverage: SpaceX reschedules Starlink delivery mission for midnight hour Tuesday

The mission comes after a Monday morning launch attempt was scrubbed. SpaceX is targeting liftoff from pad 40 at 12:42 a.m. EDT (0442 UTC) on June 3.

News about space launch
Live coverage: SpaceX to launch 23 Starlink satellites on Falcon 9 rocket from Cape Canaveral

The mission comes as solar activity triggered an alert from the National Oceanic and Atmospheric Administration for a severe geomagnetic storm alert, which could impact the Starlink satellites. SpaceX is targeting liftoff from pad 40 at 1:01 a.m. EDT (050...


Newsletter sign-up

Weekly statistics, charts and insights to help you stay on top of the space industry.